N516CT KICT-KADS

Flight info

Callsign N516CT
Flight time N/A
Altitude 3000
Route JAMEY PER
Aircraft C172/L-SFG/C

Departure

Time 2026-04-29 01:32
Airport Wichita Dwight D. Eisenhower National Airport (KICT)

Arrival

Time N/A
Airport Addison Airport (KADS)
Time Latitude Longitude Altitude Speed Heading
2026-04-29 01:11 37.64115 -97.42114 1312 ft 0 kts 270°
2026-04-29 01:22 37.64116 -97.42127 1312 ft 3 kts 272°
2026-04-29 01:22 37.64114 -97.42172 1313 ft 5 kts 270°
2026-04-29 01:22 37.64114 -97.42191 1313 ft 0 kts 273°
2026-04-29 01:23 37.64114 -97.42192 1313 ft 0 kts 274°
2026-04-29 01:23 37.64114 -97.42216 1313 ft 4 kts 271°
2026-04-29 01:23 37.64128 -97.42255 1313 ft 0 kts
2026-04-29 01:27 37.64140 -97.42254 1313 ft 4 kts
2026-04-29 01:28 37.64185 -97.42258 1313 ft 8 kts 304°
2026-04-29 01:28 37.64204 -97.42351 1313 ft 13 kts 291°
2026-04-29 01:28 37.64239 -97.42467 1315 ft 14 kts 291°
2026-04-29 01:28 37.64259 -97.42535 1316 ft 0 kts 292°
2026-04-29 01:31 37.64269 -97.42565 1316 ft 6 kts 291°
2026-04-29 01:31 37.64305 -97.42619 1316 ft 11 kts 21°
2026-04-29 01:31 37.64545 -97.42503 1316 ft 61 kts 18°
2026-04-29 01:31 37.64984 -97.42278 1488 ft 69 kts 22°
2026-04-29 01:32 37.65434 -97.42001 1689 ft 71 kts 23°
2026-04-29 01:32 37.65877 -97.41708 1890 ft 72 kts 25°
2026-04-29 01:32 37.66311 -97.41383 2105 ft 73 kts 36°
2026-04-29 01:32 37.66539 -97.40760 2237 ft 89 kts 79°
2026-04-29 01:33 37.66313 -97.40002 2434 ft 98 kts 126°
2026-04-29 01:33 37.65728 -97.39627 2667 ft 97 kts 172°
2026-04-29 01:33 37.65071 -97.39784 2864 ft 95 kts 206°
2026-04-29 01:33 37.64478 -97.40132 3053 ft 95 kts 210°
2026-04-29 01:34 37.63878 -97.40498 3250 ft 96 kts 209°
2026-04-29 01:34 37.63242 -97.40743 3441 ft 98 kts 186°
2026-04-29 01:34 37.62553 -97.40754 3617 ft 101 kts 179°
2026-04-29 01:34 37.61825 -97.40730 3732 ft 109 kts 179°
2026-04-29 01:35 37.61051 -97.40699 3891 ft 111 kts 179°
2026-04-29 01:35 37.60279 -97.40668 4054 ft 112 kts 179°
2026-04-29 01:35 37.59501 -97.40635 4217 ft 112 kts 179°
2026-04-29 01:35 37.58709 -97.40601 4381 ft 113 kts 180°
2026-04-29 01:36 37.57927 -97.40568 4546 ft 113 kts 180°
2026-04-29 01:36 37.57135 -97.40533 4716 ft 114 kts 180°
2026-04-29 01:36 37.56351 -97.40498 4880 ft 114 kts 180°
2026-04-29 01:36 37.55558 -97.40462 5042 ft 114 kts 181°
2026-04-29 01:37 37.54756 -97.40427 5203 ft 115 kts 181°
2026-04-29 01:37 37.53955 -97.40391 5361 ft 115 kts 181°
2026-04-29 01:37 37.53161 -97.40356 5514 ft 115 kts 182°
2026-04-29 01:37 37.52354 -97.40320 5667 ft 116 kts 182°
2026-04-29 01:38 37.51554 -97.40285 5814 ft 116 kts 182°
2026-04-29 01:38 37.50742 -97.40249 5962 ft 116 kts 183°
2026-04-29 01:38 37.49943 -97.40213 6105 ft 116 kts 183°
2026-04-29 01:38 37.49130 -97.40177 6247 ft 116 kts 184°
2026-04-29 01:39 37.48329 -97.40142 6384 ft 116 kts 184°
2026-04-29 01:39 37.47512 -97.40105 6533 ft 117 kts 184°
2026-04-29 01:39 37.46706 -97.40069 6680 ft 117 kts 184°
2026-04-29 01:39 37.45888 -97.40032 6826 ft 117 kts 185°
2026-04-29 01:40 37.45080 -97.39996 6963 ft 118 kts 185°
2026-04-29 01:40 37.44229 -97.39961 7004 ft 127 kts 185°
2026-04-29 01:40 37.43325 -97.39927 7007 ft 134 kts 185°
2026-04-29 01:40 37.42377 -97.39889 7004 ft 135 kts 185°
2026-04-29 01:41 37.41458 -97.39851 7002 ft 131 kts 185°
2026-04-29 01:41 37.40564 -97.39812 7003 ft 128 kts 185°
2026-04-29 01:41 37.39667 -97.39774 7004 ft 127 kts 185°
2026-04-29 01:41 37.38786 -97.39734 7004 ft 127 kts 185°
2026-04-29 01:42 37.37899 -97.39696 7005 ft 126 kts 185°
2026-04-29 01:42 37.37023 -97.39658 7005 ft 126 kts 185°
2026-04-29 01:42 37.36142 -97.39619 7005 ft 126 kts 185°
2026-04-29 01:42 37.35274 -97.39581 7006 ft 126 kts 185°
2026-04-29 01:43 37.34397 -97.39543 7006 ft 126 kts 185°
2026-04-29 01:43 37.33520 -97.39504 7006 ft 126 kts 185°
2026-04-29 01:43 37.32635 -97.39465 7007 ft 126 kts 185°
2026-04-29 01:43 37.31765 -97.39427 7007 ft 126 kts 185°
2026-04-29 01:44 37.30893 -97.39388 7006 ft 126 kts 185°
2026-04-29 01:44 37.30018 -97.39245 7008 ft 129 kts 171°
2026-04-29 01:44 37.29145 -97.38928 7008 ft 129 kts 167°
2026-04-29 01:44 37.28289 -97.38588 7008 ft 129 kts 167°
2026-04-29 01:45 37.27433 -97.38239 7008 ft 129 kts 166°
2026-04-29 01:45 37.26589 -97.37891 7008 ft 129 kts 166°
2026-04-29 01:45 37.25732 -97.37534 7008 ft 129 kts 166°
2026-04-29 01:45 37.24871 -97.37174 7008 ft 129 kts 166°
2026-04-29 01:46 37.24024 -97.36817 7008 ft 130 kts 166°
2026-04-29 01:46 37.23163 -97.36454 7007 ft 130 kts 166°
2026-04-29 01:46 37.22310 -97.36094 7007 ft 130 kts 166°
2026-04-29 01:46 37.21450 -97.35731 7007 ft 130 kts 166°
2026-04-29 01:47 37.20599 -97.35371 7006 ft 130 kts 166°
2026-04-29 01:47 37.19749 -97.35010 7006 ft 130 kts 166°
2026-04-29 01:47 37.18891 -97.34647 7005 ft 130 kts 166°
2026-04-29 01:47 37.18034 -97.34286 7005 ft 130 kts 165°
2026-04-29 01:48 37.17182 -97.33925 7004 ft 130 kts 165°
2026-04-29 01:48 37.16315 -97.33558 7004 ft 130 kts 165°
2026-04-29 01:48 37.15469 -97.33200 7003 ft 130 kts 165°
2026-04-29 01:48 37.14603 -97.32834 7003 ft 130 kts 165°
2026-04-29 01:49 37.13747 -97.32471 7002 ft 130 kts 165°
2026-04-29 01:49 37.12891 -97.32110 7001 ft 130 kts 165°
2026-04-29 01:49 37.12026 -97.31744 7001 ft 130 kts 165°
2026-04-29 01:49 37.11178 -97.31386 6999 ft 130 kts 165°
2026-04-29 01:50 37.10319 -97.31023 6998 ft 130 kts 165°
2026-04-29 01:50 37.09455 -97.30658 6996 ft 130 kts 165°
2026-04-29 01:50 37.08599 -97.30297 6994 ft 130 kts 165°
2026-04-29 01:50 37.07741 -97.29935 6993 ft 130 kts 165°
2026-04-29 01:51 37.06887 -97.29574 6991 ft 129 kts 165°
2026-04-29 01:51 37.06040 -97.29217 6989 ft 129 kts 165°
2026-04-29 01:51 37.05193 -97.28860 6988 ft 129 kts 165°
2026-04-29 01:51 37.04340 -97.28500 6986 ft 129 kts 165°
2026-04-29 01:52 37.03486 -97.28140 6984 ft 128 kts 165°
2026-04-29 01:52 37.02639 -97.27782 6982 ft 128 kts 165°
2026-04-29 01:52 37.01792 -97.27426 6981 ft 128 kts 165°
2026-04-29 01:52 37.00953 -97.27072 6979 ft 128 kts 165°
2026-04-29 01:53 37.00115 -97.26719 6977 ft 128 kts 164°
2026-04-29 01:53 36.99273 -97.26365 6976 ft 127 kts 164°
2026-04-29 01:53 36.98427 -97.26009 6974 ft 127 kts 164°
2026-04-29 01:53 36.97596 -97.25658 6972 ft 127 kts 164°
2026-04-29 01:54 36.96754 -97.25304 6971 ft 127 kts 164°
2026-04-29 01:54 36.95923 -97.24954 6969 ft 126 kts 164°
2026-04-29 01:54 36.95096 -97.24606 6968 ft 126 kts 164°
2026-04-29 01:54 36.94260 -97.24255 6968 ft 126 kts 164°
2026-04-29 01:55 36.93428 -97.23904 6967 ft 126 kts 164°
2026-04-29 01:55 36.92598 -97.23556 6967 ft 126 kts 164°
2026-04-29 01:55 36.91768 -97.23207 6967 ft 126 kts 164°
2026-04-29 01:55 36.90939 -97.22858 6967 ft 126 kts 164°
2026-04-29 01:56 36.90106 -97.22508 6967 ft 126 kts 164°
2026-04-29 01:56 36.89280 -97.22161 6963 ft 126 kts 164°
2026-04-29 01:56 36.88451 -97.21813 6962 ft 125 kts 164°
2026-04-29 01:56 36.87627 -97.21467 6962 ft 125 kts 164°
2026-04-29 01:57 36.86800 -97.21120 6962 ft 125 kts 164°
2026-04-29 01:57 36.85975 -97.20773 6962 ft 125 kts 164°
2026-04-29 01:57 36.85155 -97.20428 6962 ft 125 kts 164°
2026-04-29 01:57 36.84331 -97.20084 6961 ft 125 kts 164°
2026-04-29 01:58 36.83510 -97.19739 6961 ft 125 kts 164°
2026-04-29 01:58 36.82682 -97.19392 6961 ft 125 kts 164°
2026-04-29 01:58 36.81862 -97.19048 6961 ft 125 kts 164°
2026-04-29 01:58 36.81041 -97.18703 6961 ft 125 kts 164°
2026-04-29 01:59 36.80222 -97.18361 6961 ft 125 kts 164°
2026-04-29 01:59 36.79395 -97.18014 6961 ft 125 kts 164°
2026-04-29 01:59 36.78565 -97.17667 6961 ft 125 kts 164°
2026-04-29 01:59 36.77747 -97.17324 6961 ft 125 kts 163°
2026-04-29 02:00 36.76919 -97.16978 6961 ft 125 kts 163°
2026-04-29 02:00 36.76086 -97.16629 6962 ft 125 kts 163°
2026-04-29 02:00 36.75265 -97.16286 6961 ft 125 kts 165°
2026-04-29 02:00 36.74404 -97.16089 6962 ft 124 kts 178°
2026-04-29 02:01 36.73546 -97.15982 6962 ft 124 kts 179°
2026-04-29 02:01 36.72976 -97.15919 6962 ft 124 kts 179°